カタログに戻る

STARLINK-30502

運用中通信VLEO
NORAD 57973·PAYLOAD·🇺🇸 United States

打ち上げ Sep 30, 2023 から Cape Canaveral Space Force Station

Loading…

次のパス (今後24時間)

TLE

最新Source: CelesTrak SupGP

元期: Sep 15, 2026, 03:01 UTC

1 57973C 23151K   26258.12618056  .00039855  00000+0  14433-2 0  2589
2 57973  43.0027 346.0749 0001615 266.8431 294.6304 15.27564559    13

AllMySatでSTARLINK-30502をリアルタイム追跡

Download on the App Store